Location: Unspecified
(48.2082°N, 0.0000°E)
Time: 16:45:22
(UTC+00:00)

S-56A Canister/Altair - Pass Details

Date: 22 June 2019
Orbit: 632 x 2500 km, 38.9° (Epoch: 17 July)

Event Time Altitude Azimuth Distance (km) Brightness Sun altitude
Rises 19:44:16 0° 266° (W) 3,946 12.1 1.9°
Reaches altitude 10° 19:47:51 10° 254° (WSW) 2,690 11.0 1.4°
Maximum altitude 19:52:38 24° 202° (SSW) 1,575 9.1 0.7°
Drops below altitude 10° 19:56:31 10° 148° (SSE) 2,131 9.2 0.2°
Enters shadow 19:58:58 - 134° (SE) 2,940 9.8 -0.1°
Sets 19:59:00 0° 134° (SE) 2,955 - -0.1°
